sat.trackr.live / text

‹ back to catalog

STARLINK-31857

NORAD 59843 · 2024-097J

PAYLOAD ACTIVE UNKNOWN

§ Identity

Operator
Country
US
Launch date
2024-05-23
Launch site
AFETR
Launch vehicle
Mass (kg)
RCS (m²)

Purposes: comms

External: N2YO · Heavens-Above · Gunter

§ Orbital elements

Epoch: 2026-05-25T05:01:43.263264Z

Period
94.27 min
Inclination
43.0019°
Eccentricity
0.0001938
Mean motion
15.27563262 rev/d
Perigee alt
481.8 km
Apogee alt
484.4 km
Semi-major
6,861.2 km
B*
-6.6100e-5
RAAN
201.8582°
Arg perigee
275.2822°
Mean anomaly
84.7808°
Rev number
11,362

§ Raw data

STARLINK-318571 59843U 24097J   26145.20952851 -.00002080  00000+0 -66100-4 0  99992 59843  43.0019 201.8582 0001938 275.2822  84.7808 15.27563262113620

JSON: /api/v1/satellites/59843 · /tle

For live sub-satellite position, see the globe view (requires WebGL).

§ Visibility from observer

Set your observer location to see the next 7 days of passes ≥ 10°. The values pass through the URL so the page stays shareable.

No JS? Fill the form by hand. The geolocation button needs JavaScript.